map of AYT home
AYT - Airport
Location
City:  Antalya, Antalya, Turkey
Name:Antalya Airport
ICAO:LTAI
IATA:AYT

Details
Type:Airport (Aerodrome, Airfield)
Use:Public/Civil, Military, International (customs port of entry)
Latitude:3653'55"N (36.898731)
Longitude:3048'02"E (30.800461)
Datum:WGS 1984
Elevation:177 ft (54 m)
Variation:5.16E (WMM2015 magnetic declination)
0.09 annual change
Runways:3
Longest:11155 × 148 ft (3400 × 45 m), paved

Time
Time Zone:UTC+3
Local Time:

Weather
METAR:LTAI 150550Z 35006KT 310V010 9999 BKN030 12/09 Q1024 NOSIG
TAF:LTAI 141040Z 1412/1512 34007KT 9999 SCT030 BKN100
BECMG 1412/1416 -SHRA PROB40
TEMPO 1415/1419 FEW020CB BKN030
BECMG 1509/1512 FEW020CB BKN030

Related Locations
Nearby:
Farthest:RVV: 11529 mi / 18554 km
Raivavae, Tubuai Islands, Austral Islands, PF

Find:

   beyond  
but within

Other Information
Maps:
NOTAMs:
Links:
Sources:

  
  • flag of Turkey
  

Sectional Chart

Flight Planning
at skyvector.com

Satellite Image

Google Maps Satellite view

 

Copyright © 2004-2018 Karl L. Swartz. All rights reserved.
The Great Circle Mapper name and logo are trademarks of the Great Circle Mapper.
All other trademarks mentioned herein belong to their respective owners.
Please see credits for attibutions and further copyright information.

  Follow gcmap on Facebook Follow gcmap on Twitter Follow gcmap on Google+ GCmap on LinkedIn

hCard Microformat

Geo Microformat